St. Johnsbury, VT

3:52 AM EDT on April 22, 2018 (GMT -0400)
St. Johnsbury

Weather History for K1V4 - September, 2013

Change the Weather History Date:

Thursday, September 26, 2013

  Actual Average Record
Temperature  
Mean Temperature 53 °F 56 °F  
Max Temperature 61 °F 66 °F 90 °F (2017)
Min Temperature 45 °F 45 °F 25 °F (1947)
Degree Days  
Heating Degree Days 12 10  
Month to date heating degree days 222 142  
Since 1 July heating degree days 282 192  
Cooling Degree Days 0 0  
Month to date cooling degree days 40 33  
Year to date cooling degree days 407 431  
Growing Degree Days 2 (Base 50)    
Moisture  
Dew Point 46 °F    
Average Humidity 78    
Maximum Humidity 100    
Minimum Humidity 55    
Precipitation  
Precipitation 0.00 in 0.13 in 1.88 in (1945)
Month to date precipitation 3.65 2.89  
Year to date precipitation 28.62 28.65  
Sea Level Pressure  
Sea Level Pressure 30.09 in    
Wind  
Wind Speed - (North)    
Max Wind Speed -    
Max Gust Speed -    
T = Trace of Precipitation, MM = Missing Value Source: NWS Daily Summary

Daily Weather History Graph

Daily Weather History Graph

Search for Another Location

Airport or City:

Astronomy

Sep. 26, 2013 Rise Set
Actual Time 6:40 AM EDT 6:37 PM EDT
Civil Twilight 6:11 AM EDT 7:06 PM EDT
Nautical Twilight 5:37 AM EDT 7:40 PM EDT
Astronomical Twilight 5:02 AM EDT 8:14 PM EDT
Moon 11:21 PM EDT (9/26) 1:41 PM EDT (9/26)
Length of Visible Light 12h 55m
Length of Day
11h 57m
Waning Gibbous, 55% of the Moon is Illuminated
Sep 26
Waning Gibbous
Sep 26
Last Quarter
Oct 4
New
Oct 11
First Quarter
Oct 18
Full

Hourly Weather History & Observations

Time (EDT) Temp. Dew Point Humidity Pressure Visibility Wind Dir Wind Speed Gust Speed Precip Events Conditions
12:54 AM 48.0 °F 46.0 °F 93% 30.01 in - North - - N/A   Unknown
1:54 AM 45.0 °F 44.1 °F 97% 30.02 in - North - - N/A   Unknown
2:54 AM 45.0 °F 44.1 °F 97% 30.04 in - North - - N/A   Unknown
3:54 AM 46.0 °F 44.1 °F 93% 30.04 in - North - - N/A   Unknown
4:54 AM 46.0 °F 44.1 °F 93% 30.05 in - North - - N/A   Unknown
5:54 AM 46.9 °F 44.1 °F 90% 30.04 in - North - - N/A   Unknown
6:54 AM 46.9 °F 44.1 °F 90% 30.06 in - North - - N/A   Unknown
7:54 AM 46.9 °F 44.1 °F 90% 30.07 in - North - - N/A   Unknown
8:54 AM 48.9 °F 44.1 °F 83% 30.09 in - North - - N/A   Unknown
9:54 AM 52.0 °F 45.0 °F 77% 30.09 in - North - - N/A   Unknown
10:54 AM 55.0 °F 44.1 °F 67% 30.09 in - North - - N/A   Unknown
11:54 AM 57.0 °F 44.1 °F 62% 30.09 in - North - - N/A   Unknown
12:54 PM 57.9 °F 45.0 °F 62% 30.08 in - North - - N/A   Unknown
1:54 PM 59.0 °F 45.0 °F 60% 30.07 in - North - - N/A   Unknown
2:54 PM 60.1 °F 45.0 °F 57% 30.08 in - North - - N/A   Unknown
3:54 PM 59.0 °F 46.0 °F 62% 30.08 in - North - - N/A   Unknown
4:54 PM 57.0 °F 46.9 °F 69% 30.10 in - North - - N/A   Unknown
5:54 PM 57.0 °F 46.9 °F 69% 30.11 in - North - - N/A   Unknown
6:54 PM 55.9 °F 48.0 °F 75% 30.12 in - North - - N/A   Unknown
7:54 PM 55.9 °F 48.0 °F 75% 30.14 in - North - - N/A   Unknown
8:54 PM 55.0 °F 48.0 °F 77% 30.14 in - North - - N/A   Unknown
9:54 PM 55.0 °F 46.9 °F 74% 30.16 in - North - - N/A   Unknown
10:54 PM 54.0 °F 46.9 °F 77% 30.16 in - North - - N/A   Unknown
11:54 PM 54.0 °F 48.0 °F 80% 30.16 in - North - - N/A   Unknown